DAL1142 KSLC-KLAX

Flight info

Callsign DAL1142
Flight time 1h 35m
Altitude 36000
Route ZIONZ1 EHK LAKRR Q73 HAKMN ANJLL4
Aircraft A21N/M-SDE2E3FGHIRWXY/LB1

Departure

Time 2026-05-05 03:07
Airport Salt Lake City International Airport (KSLC)

Arrival

Time 2026-05-05 04:42
Airport Los Angeles International Airport (KLAX)
Time Latitude Longitude Altitude Speed Heading
2026-05-05 01:51 40.78580 -111.99165 4236 ft 0 kts 175°
2026-05-05 02:56 40.78604 -111.99168 4236 ft 3 kts 175°
2026-05-05 02:56 40.78625 -111.99171 4237 ft 4 kts 164°
2026-05-05 02:56 40.78642 -111.99185 4236 ft 3 kts 130°
2026-05-05 02:57 40.78656 -111.99207 4236 ft 0 kts 130°
2026-05-05 02:58 40.78656 -111.99206 4236 ft 1 kts 129°
2026-05-05 02:59 40.78655 -111.99174 4237 ft 6 kts 85°
2026-05-05 02:59 40.78663 -111.99101 4236 ft 10 kts 83°
2026-05-05 02:59 40.78671 -111.98989 4236 ft 14 kts 84°
2026-05-05 02:59 40.78680 -111.98843 4236 ft 18 kts 83°
2026-05-05 03:00 40.78694 -111.98671 4236 ft 18 kts 84°
2026-05-05 03:00 40.78702 -111.98548 4236 ft 14 kts 86°
2026-05-05 03:00 40.78711 -111.98411 4237 ft 16 kts 84°
2026-05-05 03:00 40.78722 -111.98259 4236 ft 17 kts 85°
2026-05-05 03:01 40.78733 -111.98096 4236 ft 18 kts 85°
2026-05-05 03:01 40.78744 -111.97925 4228 ft 19 kts 85°
2026-05-05 03:01 40.78757 -111.97744 4237 ft 20 kts 73°
2026-05-05 03:01 40.78847 -111.97691 4237 ft 15 kts 353°
2026-05-05 03:02 40.78962 -111.97707 4237 ft 18 kts 354°
2026-05-05 03:02 40.79095 -111.97721 4237 ft 21 kts 354°
2026-05-05 03:02 40.79246 -111.97739 4236 ft 23 kts 354°
2026-05-05 03:02 40.79409 -111.97758 4236 ft 24 kts 355°
2026-05-05 03:03 40.79579 -111.97776 4236 ft 23 kts 355°
2026-05-05 03:03 40.79712 -111.97792 4236 ft 19 kts 355°
2026-05-05 03:03 40.79846 -111.97808 4236 ft 20 kts 354°
2026-05-05 03:03 40.79976 -111.97823 4236 ft 18 kts 355°
2026-05-05 03:04 40.80092 -111.97837 4237 ft 17 kts 355°
2026-05-05 03:04 40.80215 -111.97848 4237 ft 19 kts 358°
2026-05-05 03:04 40.80321 -111.97828 4237 ft 16 kts 14°
2026-05-05 03:04 40.80436 -111.97826 4237 ft 18 kts 354°
2026-05-05 03:05 40.80565 -111.97841 4236 ft 19 kts 355°
2026-05-05 03:05 40.80660 -111.97851 4236 ft 9 kts 355°
2026-05-05 03:05 40.80715 -111.97853 4236 ft 5 kts 19°
2026-05-05 03:05 40.80738 -111.97807 4235 ft 9 kts 88°
2026-05-05 03:06 40.80724 -111.97717 4234 ft 12 kts 128°
2026-05-05 03:06 40.80629 -111.97685 4235 ft 23 kts 174°
2026-05-05 03:06 40.80223 -111.97638 4238 ft 95 kts 175°
2026-05-05 03:06 40.79347 -111.97536 4235 ft 150 kts 175°
2026-05-05 03:07 40.78202 -111.97398 4397 ft 170 kts 175°
2026-05-05 03:07 40.77054 -111.97240 5157 ft 164 kts 171°
2026-05-05 03:07 40.75891 -111.97009 5698 ft 176 kts 171°
2026-05-05 03:07 40.74633 -111.96803 6189 ft 188 kts 170°
2026-05-05 03:08 40.73277 -111.96627 6697 ft 203 kts 173°
2026-05-05 03:08 40.71815 -111.96598 7139 ft 217 kts 178°
2026-05-05 03:08 40.70268 -111.96587 7636 ft 233 kts 179°
2026-05-05 03:08 40.68548 -111.96571 8136 ft 253 kts 179°
2026-05-05 03:09 40.66741 -111.96552 8803 ft 266 kts 179°
2026-05-05 03:09 40.64868 -111.96535 9657 ft 270 kts 180°
2026-05-05 03:09 40.62974 -111.96518 10469 ft 277 kts 180°
2026-05-05 03:09 40.60970 -111.96500 10861 ft 299 kts 180°
2026-05-05 03:10 40.58804 -111.96479 11184 ft 322 kts 180°
2026-05-05 03:10 40.56482 -111.96453 11490 ft 345 kts 180°
2026-05-05 03:10 40.54006 -111.96428 11786 ft 366 kts 180°
2026-05-05 03:10 40.51391 -111.96403 12077 ft 385 kts 180°
2026-05-05 03:11 40.48663 -111.96375 12480 ft 397 kts 180°
2026-05-05 03:11 40.45884 -111.96346 13113 ft 401 kts 180°
2026-05-05 03:11 40.43087 -111.96318 13772 ft 404 kts 180°
2026-05-05 03:11 40.40268 -111.96287 14376 ft 407 kts 180°
2026-05-05 03:12 40.37724 -111.96260 14920 ft 410 kts 181°
2026-05-05 03:12 40.34901 -111.96234 15559 ft 414 kts 180°
2026-05-05 03:12 40.32017 -111.96202 16240 ft 417 kts 180°
2026-05-05 03:12 40.29106 -111.96174 16890 ft 421 kts 180°
2026-05-05 03:13 40.26201 -111.96148 17537 ft 425 kts 180°
2026-05-05 03:13 40.23236 -111.96115 18185 ft 428 kts 180°
2026-05-05 03:13 40.20251 -111.96079 18748 ft 430 kts 180°
2026-05-05 03:13 40.17248 -111.96053 19300 ft 433 kts 180°
2026-05-05 03:14 40.14215 -111.96041 19821 ft 437 kts 181°
2026-05-05 03:14 40.11182 -111.96336 20356 ft 439 kts 187°
2026-05-05 03:14 40.08141 -111.96786 20865 ft 442 kts 187°
2026-05-05 03:14 40.05073 -111.97251 21348 ft 445 kts 187°
2026-05-05 03:15 40.01982 -111.97714 21880 ft 449 kts 186°
2026-05-05 03:15 39.98865 -111.98163 22418 ft 452 kts 186°
2026-05-05 03:15 39.95731 -111.98606 22941 ft 455 kts 186°
2026-05-05 03:15 39.92574 -111.99051 23429 ft 459 kts 186°
2026-05-05 03:16 39.89387 -111.99508 23854 ft 461 kts 186°
2026-05-05 03:16 39.86189 -111.99975 24288 ft 463 kts 187°
2026-05-05 03:16 39.82981 -112.00444 24755 ft 463 kts 187°
2026-05-05 03:16 39.79787 -112.00908 25351 ft 460 kts 187°
2026-05-05 03:17 39.76620 -112.01367 25953 ft 457 kts 187°
2026-05-05 03:17 39.73465 -112.01826 26543 ft 455 kts 188°
2026-05-05 03:17 39.70324 -112.02280 27162 ft 452 kts 188°
2026-05-05 03:17 39.67211 -112.02731 27747 ft 450 kts 188°
2026-05-05 03:18 39.64108 -112.03182 28318 ft 447 kts 189°
2026-05-05 03:18 39.61026 -112.03629 28891 ft 445 kts 189°
2026-05-05 03:18 39.57964 -112.04072 29476 ft 442 kts 189°
2026-05-05 03:18 39.54907 -112.04515 30000 ft 440 kts 190°
2026-05-05 03:19 39.48845 -112.05389 30795 ft 438 kts 190°
2026-05-05 03:19 39.45814 -112.05826 31169 ft 438 kts 190°
2026-05-05 03:19 39.42789 -112.06257 31545 ft 437 kts 190°
2026-05-05 03:20 39.39774 -112.06686 31902 ft 436 kts 191°
2026-05-05 03:20 39.36770 -112.07114 32335 ft 433 kts 191°
2026-05-05 03:20 39.33772 -112.07541 32734 ft 431 kts 191°
2026-05-05 03:20 39.30794 -112.07962 33116 ft 430 kts 192°
2026-05-05 03:21 39.27829 -112.08382 33486 ft 429 kts 192°
2026-05-05 03:21 39.24869 -112.08799 33832 ft 427 kts 192°
2026-05-05 03:21 39.21919 -112.09215 34151 ft 426 kts 192°
2026-05-05 03:21 39.18981 -112.09630 34473 ft 424 kts 193°
2026-05-05 03:22 39.16070 -112.10065 34870 ft 417 kts 195°
2026-05-05 03:22 39.13278 -112.10889 35236 ft 405 kts 204°
2026-05-05 03:22 39.10730 -112.12305 35563 ft 396 kts 213°
2026-05-05 03:22 39.09140 -112.13440 35770 ft 393 kts 214°
2026-05-05 03:23 39.04398 -112.16972 35857 ft 394 kts 214°
2026-05-05 03:23 38.99633 -112.20476 35852 ft 394 kts 213°
2026-05-05 03:24 38.94868 -112.23944 35865 ft 393 kts 213°
2026-05-05 03:24 38.90132 -112.27386 35881 ft 389 kts 213°
2026-05-05 03:25 38.85419 -112.30798 35878 ft 389 kts 214°
2026-05-05 03:25 38.80701 -112.34214 35865 ft 389 kts 214°
2026-05-05 03:26 38.75990 -112.37620 35843 ft 389 kts 214°
2026-05-05 03:26 38.71279 -112.41022 35818 ft 389 kts 214°
2026-05-05 03:27 38.66597 -112.44397 35779 ft 381 kts 214°
2026-05-05 03:27 38.61958 -112.47741 35785 ft 386 kts 214°
2026-05-05 03:28 38.57268 -112.51117 35786 ft 388 kts 214°
2026-05-05 03:28 38.52563 -112.54492 35786 ft 388 kts 213°
2026-05-05 03:29 38.47847 -112.57865 35789 ft 388 kts 213°
2026-05-05 03:29 38.43142 -112.61232 35796 ft 388 kts 213°
2026-05-05 03:30 38.38428 -112.64601 35814 ft 388 kts 213°
2026-05-05 03:30 38.33713 -112.67964 35818 ft 388 kts 213°
2026-05-05 03:31 38.28991 -112.71328 35830 ft 389 kts 213°
2026-05-05 03:31 38.24271 -112.74687 35819 ft 389 kts 213°
2026-05-05 03:32 38.19553 -112.78043 35809 ft 389 kts 213°
2026-05-05 03:32 38.14855 -112.81375 35811 ft 387 kts 213°
2026-05-05 03:33 38.10146 -112.84706 35795 ft 388 kts 213°
2026-05-05 03:33 38.05424 -112.88043 35790 ft 388 kts 213°
2026-05-05 03:34 38.00707 -112.91373 35790 ft 388 kts 213°
2026-05-05 03:34 37.95987 -112.94697 35833 ft 388 kts 213°
2026-05-05 03:35 37.91283 -112.98004 35851 ft 382 kts 213°
2026-05-05 03:35 37.86644 -113.01265 35892 ft 381 kts 213°
2026-05-05 03:36 37.82004 -113.04526 35916 ft 382 kts 213°
2026-05-05 03:36 37.77381 -113.07808 35937 ft 381 kts 214°
2026-05-05 03:37 37.72789 -113.11171 35952 ft 381 kts 214°
2026-05-05 03:37 37.68158 -113.14572 35928 ft 388 kts 214°
2026-05-05 03:38 37.63537 -113.17950 35936 ft 382 kts 214°
2026-05-05 03:38 37.58936 -113.21322 35914 ft 382 kts 214°
2026-05-05 03:39 37.54328 -113.24682 35887 ft 383 kts 214°
2026-05-05 03:39 37.49713 -113.28045 35859 ft 383 kts 214°
2026-05-05 03:40 37.45091 -113.31414 35825 ft 384 kts 214°
2026-05-05 03:40 37.40463 -113.34777 35779 ft 382 kts 214°
2026-05-05 03:41 37.35916 -113.38076 35785 ft 380 kts 214°
2026-05-05 03:41 37.31334 -113.41391 35796 ft 380 kts 214°
2026-05-05 03:42 37.26708 -113.44729 35805 ft 385 kts 214°
2026-05-05 03:42 37.22050 -113.48101 35828 ft 387 kts 214°
2026-05-05 03:43 37.17412 -113.51454 35846 ft 388 kts 214°
2026-05-05 03:43 37.12724 -113.54830 35846 ft 382 kts 214°
2026-05-05 03:44 37.08142 -113.58120 35850 ft 383 kts 214°
2026-05-05 03:44 37.03520 -113.61435 35849 ft 383 kts 214°
2026-05-05 03:45 36.98894 -113.64753 35839 ft 384 kts 214°
2026-05-05 03:45 36.94258 -113.68071 35825 ft 384 kts 214°
2026-05-05 03:46 36.89622 -113.71383 35800 ft 384 kts 214°
2026-05-05 03:46 36.85010 -113.74673 35796 ft 381 kts 214°
2026-05-05 03:47 36.80385 -113.77974 35793 ft 385 kts 214°
2026-05-05 03:47 36.75723 -113.81291 35775 ft 386 kts 214°
2026-05-05 03:48 36.71056 -113.84615 35771 ft 387 kts 214°
2026-05-05 03:48 36.66380 -113.87940 35762 ft 386 kts 214°
2026-05-05 03:49 36.61713 -113.91253 35764 ft 384 kts 214°
2026-05-05 03:49 36.57081 -113.94527 35765 ft 382 kts 214°
2026-05-05 03:50 36.52460 -113.97800 35766 ft 383 kts 214°
2026-05-05 03:50 36.47822 -114.01076 35752 ft 384 kts 214°
2026-05-05 03:51 36.43172 -114.04351 35747 ft 384 kts 214°
2026-05-05 03:51 36.38515 -114.07620 35756 ft 385 kts 214°
2026-05-05 03:52 36.33859 -114.10886 35750 ft 383 kts 214°
2026-05-05 03:52 36.29235 -114.14134 35747 ft 383 kts 214°
2026-05-05 03:53 36.24598 -114.17386 35749 ft 383 kts 214°
2026-05-05 03:53 36.19944 -114.20630 35755 ft 384 kts 214°
2026-05-05 03:54 36.15294 -114.23885 35758 ft 384 kts 214°
2026-05-05 03:54 36.10648 -114.27147 35745 ft 383 kts 215°
2026-05-05 03:55 36.06579 -114.31222 35739 ft 374 kts 229°
2026-05-05 03:55 36.03147 -114.36044 35747 ft 374 kts 230°
2026-05-05 03:56 35.99697 -114.40863 35747 ft 375 kts 230°
2026-05-05 03:56 35.96224 -114.45674 35758 ft 376 kts 229°
2026-05-05 03:57 35.92737 -114.50504 35771 ft 377 kts 229°
2026-05-05 03:57 35.89249 -114.55317 35785 ft 377 kts 229°
2026-05-05 03:58 35.85743 -114.60119 35748 ft 377 kts 229°
2026-05-05 03:58 35.82251 -114.64944 35755 ft 377 kts 229°
2026-05-05 03:59 35.78745 -114.69752 35752 ft 377 kts 229°
2026-05-05 03:59 35.75251 -114.74548 35747 ft 376 kts 229°
2026-05-05 04:00 35.71749 -114.79342 35766 ft 376 kts 229°
2026-05-05 04:00 35.68248 -114.84125 35778 ft 376 kts 229°
2026-05-05 04:01 35.64735 -114.88916 35779 ft 377 kts 229°
2026-05-05 04:01 35.61235 -114.93712 35773 ft 377 kts 229°
2026-05-05 04:02 35.57719 -114.98507 35786 ft 377 kts 229°
2026-05-05 04:02 35.54211 -115.03282 35878 ft 377 kts 229°
2026-05-05 04:03 35.50693 -115.08064 35863 ft 377 kts 228°
2026-05-05 04:03 35.47120 -115.12771 35864 ft 377 kts 228°
2026-05-05 04:04 35.43547 -115.17457 35866 ft 374 kts 228°
2026-05-05 04:04 35.39986 -115.22105 35878 ft 374 kts 228°
2026-05-05 04:05 35.36435 -115.26714 35885 ft 374 kts 227°
2026-05-05 04:05 35.32875 -115.31352 35890 ft 374 kts 228°
2026-05-05 04:06 35.29297 -115.35982 35902 ft 374 kts 227°
2026-05-05 04:06 35.26319 -115.39861 35909 ft 373 kts 227°
2026-05-05 04:07 35.22764 -115.44480 35908 ft 373 kts 227°
2026-05-05 04:07 35.19202 -115.49099 35906 ft 373 kts 227°
2026-05-05 04:08 35.15637 -115.53708 35911 ft 373 kts 227°
2026-05-05 04:08 35.12077 -115.58307 35889 ft 370 kts 227°
2026-05-05 04:09 35.08548 -115.62823 35909 ft 365 kts 227°
2026-05-05 04:09 35.05046 -115.67296 35912 ft 364 kts 226°
2026-05-05 04:10 35.01554 -115.71756 35911 ft 363 kts 226°
2026-05-05 04:10 34.98074 -115.76193 35909 ft 362 kts 226°
2026-05-05 04:11 34.94591 -115.80619 35896 ft 361 kts 226°
2026-05-05 04:11 34.91079 -115.85066 35895 ft 369 kts 226°
2026-05-05 04:12 34.87524 -115.89598 35885 ft 370 kts 226°
2026-05-05 04:12 34.83947 -115.94111 35885 ft 370 kts 226°
2026-05-05 04:13 34.80378 -115.98626 35866 ft 369 kts 226°
2026-05-05 04:13 34.76848 -116.03099 35875 ft 364 kts 226°
2026-05-05 04:14 34.73375 -116.07554 35875 ft 362 kts 226°
2026-05-05 04:14 34.69917 -116.11969 35873 ft 360 kts 226°
2026-05-05 04:15 34.66456 -116.16359 35873 ft 359 kts 226°
2026-05-05 04:15 34.62999 -116.20750 35879 ft 364 kts 226°
2026-05-05 04:16 34.59476 -116.25220 35881 ft 367 kts 226°
2026-05-05 04:16 34.55960 -116.29690 35885 ft 365 kts 226°
2026-05-05 04:17 34.52441 -116.34125 35880 ft 365 kts 226°
2026-05-05 04:17 34.48911 -116.38547 35856 ft 364 kts 226°
2026-05-05 04:18 34.47173 -116.40735 35487 ft 358 kts 226°
2026-05-05 04:18 34.45450 -116.42906 35217 ft 356 kts 226°
2026-05-05 04:18 34.43738 -116.45068 34974 ft 355 kts 226°
2026-05-05 04:18 34.42125 -116.47289 34741 ft 355 kts 231°
2026-05-05 04:19 34.40768 -116.49844 34511 ft 357 kts 238°
2026-05-05 04:19 34.39650 -116.52522 34070 ft 355 kts 240°
2026-05-05 04:19 34.38590 -116.55158 33382 ft 351 kts 240°
2026-05-05 04:19 34.37510 -116.57806 32675 ft 350 kts 239°
2026-05-05 04:20 34.36430 -116.60445 31931 ft 350 kts 239°
2026-05-05 04:20 34.35339 -116.63077 31217 ft 350 kts 239°
2026-05-05 04:20 34.34255 -116.65714 30505 ft 350 kts 239°
2026-05-05 04:20 34.33176 -116.68344 29839 ft 348 kts 240°
2026-05-05 04:21 34.32128 -116.70956 29323 ft 341 kts 240°
2026-05-05 04:21 34.31102 -116.73517 28775 ft 334 kts 240°
2026-05-05 04:21 34.30089 -116.76008 28279 ft 328 kts 240°
2026-05-05 04:21 34.29090 -116.78467 27683 ft 325 kts 240°
2026-05-05 04:22 34.28095 -116.80921 27089 ft 324 kts 240°
2026-05-05 04:22 34.27104 -116.83371 26466 ft 324 kts 241°
2026-05-05 04:22 34.26115 -116.85823 25830 ft 326 kts 241°
2026-05-05 04:22 34.25132 -116.88295 25227 ft 327 kts 242°
2026-05-05 04:23 34.24137 -116.90785 24580 ft 330 kts 242°
2026-05-05 04:23 34.23134 -116.93284 23975 ft 332 kts 242°
2026-05-05 04:23 34.22125 -116.95786 23390 ft 332 kts 242°
2026-05-05 04:23 34.21143 -116.98317 22761 ft 333 kts 246°
2026-05-05 04:24 34.20373 -117.00951 22205 ft 333 kts 249°
2026-05-05 04:24 34.19658 -117.03616 21636 ft 332 kts 249°
2026-05-05 04:24 34.18950 -117.06268 21059 ft 332 kts 249°
2026-05-05 04:25 34.17505 -117.11554 20022 ft 330 kts 249°
2026-05-05 04:25 34.16785 -117.14182 19535 ft 329 kts 249°
2026-05-05 04:25 34.16081 -117.16812 19095 ft 337 kts 249°
2026-05-05 04:25 34.15331 -117.19569 18957 ft 346 kts 249°
2026-05-05 04:26 34.14584 -117.22296 18455 ft 342 kts 249°
2026-05-05 04:26 34.13827 -117.25016 17754 ft 341 kts 249°
2026-05-05 04:26 34.13074 -117.27711 17126 ft 337 kts 249°
2026-05-05 04:26 34.12332 -117.30374 16590 ft 333 kts 249°
2026-05-05 04:27 34.11772 -117.32386 16218 ft 333 kts 249°
2026-05-05 04:27 34.11040 -117.35040 15742 ft 334 kts 250°
2026-05-05 04:27 34.10323 -117.37712 15275 ft 334 kts 251°
2026-05-05 04:27 34.09665 -117.40383 14825 ft 330 kts 251°
2026-05-05 04:28 34.09012 -117.43021 14349 ft 327 kts 252°
2026-05-05 04:28 34.08357 -117.45657 13889 ft 329 kts 252°
2026-05-05 04:28 34.07692 -117.48286 13456 ft 324 kts 252°
2026-05-05 04:28 34.07049 -117.50835 13061 ft 310 kts 252°
2026-05-05 04:29 34.06424 -117.53290 12569 ft 302 kts 252°
2026-05-05 04:29 34.05816 -117.55691 11906 ft 299 kts 252°
2026-05-05 04:29 34.05208 -117.58089 11319 ft 298 kts 252°
2026-05-05 04:29 34.04598 -117.60463 10838 ft 295 kts 252°
2026-05-05 04:30 34.04003 -117.62786 10476 ft 295 kts 252°
2026-05-05 04:30 34.03429 -117.65038 10293 ft 282 kts 252°
2026-05-05 04:30 34.02867 -117.67241 10158 ft 267 kts 252°
2026-05-05 04:30 34.02380 -117.69116 10065 ft 259 kts 253°
2026-05-05 04:31 34.02028 -117.71230 9853 ft 255 kts 261°
2026-05-05 04:31 34.01823 -117.73349 9394 ft 254 kts 262°
2026-05-05 04:31 34.01633 -117.75453 8952 ft 253 kts 262°
2026-05-05 04:31 34.01436 -117.77575 8934 ft 255 kts 262°
2026-05-05 04:32 34.01238 -117.79681 8676 ft 251 kts 262°
2026-05-05 04:32 34.01039 -117.81764 8252 ft 251 kts 262°
2026-05-05 04:32 34.00835 -117.83875 8020 ft 253 kts 263°
2026-05-05 04:32 34.00631 -117.85967 7870 ft 249 kts 262°
2026-05-05 04:33 34.00414 -117.88036 7459 ft 248 kts 262°
2026-05-05 04:33 34.00200 -117.90109 7090 ft 251 kts 263°
2026-05-05 04:33 33.99998 -117.92196 6909 ft 251 kts 263°
2026-05-05 04:33 33.99798 -117.94278 6598 ft 250 kts 263°
2026-05-05 04:34 33.99600 -117.96324 6345 ft 241 kts 263°
2026-05-05 04:34 33.99408 -117.98293 6029 ft 236 kts 263°
2026-05-05 04:34 33.99223 -118.00177 5828 ft 236 kts 263°
2026-05-05 04:34 33.99029 -118.02136 5546 ft 235 kts 263°
2026-05-05 04:35 33.98831 -118.04121 5209 ft 234 kts 263°
2026-05-05 04:35 33.98640 -118.06025 4913 ft 234 kts 263°
2026-05-05 04:35 33.98502 -118.07974 4652 ft 230 kts 263°
2026-05-05 04:35 33.98320 -118.09839 4465 ft 218 kts 263°
2026-05-05 04:36 33.98141 -118.11614 4152 ft 210 kts 262°
2026-05-05 04:36 33.97966 -118.13330 3871 ft 207 kts 262°
2026-05-05 04:36 33.97788 -118.15067 3703 ft 211 kts 262°
2026-05-05 04:36 33.97611 -118.16796 3727 ft 200 kts 262°
2026-05-05 04:37 33.97447 -118.18387 3651 ft 184 kts 263°
2026-05-05 04:37 33.97293 -118.19885 3457 ft 179 kts 263°
2026-05-05 04:37 33.97143 -118.21357 3234 ft 177 kts 263°
2026-05-05 04:37 33.96990 -118.22849 2993 ft 178 kts 263°
2026-05-05 04:38 33.96838 -118.24325 2760 ft 176 kts 263°
2026-05-05 04:38 33.96689 -118.25781 2564 ft 176 kts 263°
2026-05-05 04:38 33.96538 -118.27253 2344 ft 168 kts 263°
2026-05-05 04:38 33.96409 -118.28512 2117 ft 142 kts 263°
2026-05-05 04:39 33.96297 -118.29595 1882 ft 125 kts 261°
2026-05-05 04:39 33.96190 -118.30618 1706 ft 124 kts 262°
2026-05-05 04:39 33.96086 -118.31661 1542 ft 126 kts 262°
2026-05-05 04:39 33.95977 -118.32694 1368 ft 123 kts 261°
2026-05-05 04:40 33.95872 -118.33720 1201 ft 124 kts 263°
2026-05-05 04:40 33.95772 -118.34748 1027 ft 122 kts 262°
2026-05-05 04:40 33.95667 -118.35754 857 ft 120 kts 262°
2026-05-05 04:40 33.95565 -118.36746 741 ft 121 kts 261°
2026-05-05 04:41 33.95485 -118.37547 597 ft 121 kts 261°
2026-05-05 04:41 33.95395 -118.38421 437 ft 120 kts 260°
2026-05-05 04:41 33.95291 -118.39433 259 ft 123 kts 261°
2026-05-05 04:41 33.95215 -118.40160 142 ft 121 kts 261°
2026-05-05 04:42 33.95115 -118.41121 100 ft 104 kts 263°
2026-05-05 04:42 33.95059 -118.41670 100 ft 52 kts 262°
2026-05-05 04:42 33.95012 -118.42033 99 ft 33 kts 253°
2026-05-05 04:42 33.94941 -118.42195 100 ft 20 kts 225°
2026-05-05 04:43 33.94813 -118.42281 102 ft 23 kts 181°
2026-05-05 04:43 33.94714 -118.42272 100 ft 16 kts 167°
2026-05-05 04:43 33.94685 -118.42206 102 ft 11 kts 88°
2026-05-05 04:43 33.94696 -118.42106 99 ft 13 kts 82°
2026-05-05 04:44 33.94708 -118.41983 99 ft 16 kts 83°
2026-05-05 04:44 33.94722 -118.41841 99 ft 18 kts 83°
2026-05-05 04:44 33.94744 -118.41621 99 ft 21 kts 81°
2026-05-05 04:44 33.94758 -118.41497 101 ft 23 kts 83°
2026-05-05 04:45 33.94791 -118.41301 100 ft 25 kts 84°
2026-05-05 04:45 33.94810 -118.41106 100 ft 16 kts 83°
2026-05-05 04:45 33.94823 -118.40988 101 ft 15 kts 82°
2026-05-05 04:45 33.94837 -118.40851 100 ft 18 kts 83°
2026-05-05 04:46 33.94852 -118.40698 100 ft 17 kts 83°
2026-05-05 04:46 33.94865 -118.40569 100 ft 15 kts 83°
2026-05-05 04:46 33.94880 -118.40431 101 ft 17 kts 83°
2026-05-05 04:46 33.94871 -118.40306 100 ft 15 kts 139°
2026-05-05 04:47 33.94807 -118.40272 99 ft 8 kts 163°
2026-05-05 04:47 33.94755 -118.40286 98 ft 7 kts 227°
2026-05-05 04:47 33.94743 -118.40308 98 ft 3 kts 237°
2026-05-05 04:47 33.94733 -118.40327 98 ft 3 kts 236°
2026-05-05 04:48 33.94732 -118.40330 99 ft 0 kts 235°